Change the Weather History Date:

Sunday, November 4, 2012

  Actual Average Record
Temperature  
Mean Temperature 68 °F -  
Max Temperature 86 °F 75 °F 95 °F (1949)
Min Temperature 53 °F 54 °F 35 °F (1935)
Cooling Degree Days 4    
Growing Degree Days 18 (Base 50)    
Moisture  
Dew Point 46 °F    
Average Humidity 50    
Maximum Humidity 87    
Minimum Humidity 17    
Precipitation  
Precipitation 0.01 in - - ()
Sea Level Pressure  
Sea Level Pressure 30.04 in    
Wind  
Wind Speed 3 mph (ENE)    
Max Wind Speed 6 mph    
Max Gust Speed -    
Visibility 9 miles    
Events      
Averages and records for this station are not official NWS values.
T = Trace of Precipitation, MM = Missing Value Source: NWS Daily Summary

Daily Weather History Graph

Daily Weather History Graph

Search for Another Location

Airport or City:

Trip Planner

Search our weather history database for the weather conditions in past years. The results will help you decide how hot, cold, wet, or windy it might be!

Date:

Astronomy

Nov. 04, 2012 Rise Set
Actual Time 6:16 AM PST 4:57 PM PST
Civil Twilight 5:50 AM PST 5:23 PM PST
Nautical Twilight 5:20 AM PST 5:53 PM PST
Astronomical Twilight 4:51 AM PST 6:22 PM PST
Moon 9:42 PM PST (11/4) 11:00 AM PST (11/4)
Length of Visible Light 11h 33m
Length of Day
10h 41m
Waning Gibbous, 71% of the Moon is Illuminated
Nov 4
Waning Gibbous
Nov 6
Last Quarter
Nov 13
New
Nov 20
First Quarter
Nov 28
Full

Hourly Weather History & Observations

Time (PST) Temp. Dew Point Humidity Pressure Visibility Wind Dir Wind Speed Gust Speed Precip Events Conditions
12:51 AM 60.1 °F 55.0 °F 83% 30.04 in 6.0 mi NE 3.5 mph - N/A   Haze
1:51 AM 57.9 °F 54.0 °F 87% 30.04 in 4.0 mi NE 3.5 mph - 0.01 in   Clear
1:51 AM 57.9 °F 53.1 °F 84% 30.04 in 7.0 mi NE 3.5 mph - N/A   Clear
2:51 AM 57.0 °F 48.9 °F 74% 30.04 in 10.0 mi NNE 3.5 mph - N/A   Clear
3:51 AM 55.9 °F 46.0 °F 69% 30.04 in 10.0 mi Calm Calm - N/A   Clear
5:51 AM 53.1 °F 45.0 °F 74% 30.04 in 10.0 mi NE 4.6 mph - N/A   Clear
6:51 AM 55.9 °F 45.0 °F 67% 30.06 in 10.0 mi East 3.5 mph - N/A   Clear
8:51 AM 71.1 °F 42.1 °F 35% 30.08 in 10.0 mi Calm Calm - N/A   Clear
9:51 AM 80.1 °F 37.0 °F 21% 30.08 in 10.0 mi Calm Calm - N/A   Clear
10:51 AM 81.0 °F 43.0 °F 26% 30.06 in 10.0 mi SSW 4.6 mph - N/A   Clear
11:51 AM 84.9 °F 37.0 °F 18% 30.04 in 10.0 mi SSW 4.6 mph - N/A   Clear
12:51 PM 84.9 °F 35.1 °F 17% 30.02 in 10.0 mi SSW 4.6 mph - N/A   Clear
1:51 PM 82.9 °F 37.0 °F 19% 30.01 in 10.0 mi WSW 4.6 mph - N/A   Clear
2:51 PM 77.0 °F 48.0 °F 36% 30.01 in 10.0 mi SW 5.8 mph - N/A   Clear
3:51 PM 77.0 °F 50.0 °F 39% 30.01 in 10.0 mi SSW 4.6 mph - N/A   Clear
4:51 PM 75.9 °F 46.9 °F 36% 30.01 in 10.0 mi WSW 3.5 mph - N/A   Clear
5:51 PM 70.0 °F 55.0 °F 59% 30.02 in 10.0 mi Calm Calm - N/A   Clear
6:51 PM 66.0 °F 54.0 °F 65% 30.02 in 10.0 mi ENE 3.5 mph - N/A   Clear
7:51 PM 66.0 °F 53.1 °F 63% 30.03 in 10.0 mi Calm Calm - N/A   Clear
8:51 PM 68.0 °F 50.0 °F 52% 30.04 in 10.0 mi NNE 3.5 mph - N/A   Clear
9:51 PM 68.0 °F 45.0 °F 43% 30.04 in 10.0 mi NE 4.6 mph - N/A   Clear
10:51 PM 66.9 °F 42.1 °F 40% 30.05 in 10.0 mi ENE 3.5 mph - N/A   Clear